Погода в Рождествене

Россия / Владимирская область     56°11′30″N   39°53′05″E
темп.,
°C
ветер,
м/с
пор.,
м/с
влажн.,
%
обл.,
%
осадки,
мм/ч
давл.,
гПа
погр.,
м
25 июля, вс
вс2500:00+11сз22665 0.0 101813
03:00+9сз22735 0.0 101910
06:00+12зюз00676 0.0 102035
09:00+16юз2355100 0.0 1020295
12:00+21зюз453943 0.0 10201709
15:00+22юз463697 0.0 10202681
18:00+20зсз365014 0.0 1020592
21:00+14сз226612 0.0 102111
26 июля, пн
пн2600:00+15ююз2258100 0.0 102214
03:00+16зюз3455100 0.0 102267
06:00+16юз3660100 0.0 1022141
09:00+19з345494 0.0 1023353
12:00+23з354291 0.0 10231346
15:00+24зюз554098 0.0 10221996
18:00+23з354520 0.0 1021947
21:00+18юз336046 0.0 102140
27 июля, вт
вт2700:00+17зюз357084 0.0 102290
03:00+18зсз357116 0.0 1021116
06:00+17сз247388 0.0 1022114
09:00+22ссз23509 0.0 1022543
12:00+26сз343961 0.0 10211983
15:00+27сз443353 0.0 10192757
18:00+26зсз454054 0.0 10181107
21:00+17в258752 0.3 1020127
28 июля, ср
ср2800:00+17ю34823 0.1 101976
03:00+15ююв228518 0.1 101914
06:00+16ю23805 0.0 101769
09:00+23ююз23525 0.0 1016461
12:00+28юз453613 0.0 10142626
15:00+24зсз3652100 0.3 1012229
18:00+23з4663100 1.2 1011516
21:00+17юз5992100 2.6 1012305
29 июля, чт
чт2900:00+16ююв249394 0.1 1010130
03:00+15юв2593100 0.1 1008129
06:00+16всв249492 0.0 1008188
09:00+19всв3477100 0.0 1008608
12:00+24ссв3454100 0.0 10071383
15:00+24ссз4452100 0.0 10081118
18:00+24зсз445551 0.0 1008550
21:00+19з337579 0.0 100833